Regional Weather Roundup
Issued by NWS

Home | Current Version | Previous Version | Graphics & Text | Print | Product List | Glossary On
Versions: 1 2 3 4 5 6 7 8 9 10 11 12 13 14 15 16 17 18 19 20 21 22 23 24 25 26 27 28 29 30 31 32 33 34 35 36 37 38 39 40 41 42 43 44 45 46 47 48 49 50
000
ASUS43 KOAX 020010
RWRNE

WEATHER ROUNDUP FOR NEBRASKA
NATIONAL WEATHER SERVICE OMAHA NE
700 PM CDT WED JUL 01 2015

NOTES: SATELLITE DATA IS BEING USED TO AUGMENT CLOUD COVER ABOVE
       12000 FEET.
       "FAIR" INDICATES FEW OR NO CLOUDS BELOW 12,000 FEET WITH NO
       SIGNIFICANT WEATHER AND/OR OBSTRUCTIONS TO VISIBILITY.

  * THESE STATIONS DO NOT REPORT WEATHER SUCH AS RAIN...SNOW OR FOG.

NEZ001>004-019>022-054>056-020100-
NEBRASKA PANHANDLE

CITY           SKY/WX    TMP DP  RH WIND       PRES   REMARKS
SCOTTSBLUFF    PTSUNNY   89  52  28 SE13      29.98F
6HR MIN TEMP:  89; 6HR MAX TEMP:  96;

ALLIANCE       SUNNY     86  58  38 E12       29.99F
6HR MIN TEMP:  86; 6HR MAX TEMP:  90;

CHADRON        SUNNY     84  60  44 NE12      29.97S
6HR MIN TEMP:  84; 6HR MAX TEMP:  90;

KIMBALL          N/A    N/A N/A N/A MISG        N/A
SIDNEY         MOSUNNY   89  53  29 E8        30.02F
6HR MIN TEMP:  88; 6HR MAX TEMP:  93;

$$

NEZ057>060-069>072-079>082-020100-
SOUTHWEST NEBRASKA

CITY           SKY/WX    TMP DP  RH WIND       PRES   REMARKS
NORTH PLATTE   MOSUNNY   90  55  30 N14       29.92R
6HR MIN TEMP:  90; 6HR MAX TEMP:  95;

IMPERIAL       SUNNY     93  54  26 NE12      29.94S HX  91
6HR MIN TEMP:  91; 6HR MAX TEMP:  97;

LEXINGTON      SUNNY     89  66  46 E7        29.90S HX  91
MCCOOK         SUNNY     92  64  39 E7        29.89S HX  93
6HR MIN TEMP:  92; 6HR MAX TEMP:  97;

OGALLALA       SUNNY     90  55  30 NE7       29.95F
$$

NEZ005>010-023>029-035>040-094-020100-
NORTH CENTRAL NEBRASKA

CITY           SKY/WX    TMP DP  RH WIND       PRES   REMARKS
VALENTINE      SUNNY     83  66  56 N10       29.93S
6HR MIN TEMP:  82; 6HR MAX TEMP:  88;

AINSWORTH      SUNNY     84  64  50 N12G20    29.92S
BROKEN BOW     SUNNY     86  69  56 NE5       29.90S HX  90
6HR MIN TEMP:  83; 6HR MAX TEMP:  88;

O`NEILL        MOSUNNY   78  68  71 NE5       29.90S
ORD            SUNNY     85  67  54 E7        29.86F
6HR MIN TEMP:  75; 6HR MAX TEMP:  86;

THEDFORD       SUNNY     86  61  42 N8        29.95S
$$

NEZ041-046>049-061>064-073>077-083>087-020100-
SOUTH CENTRAL NEBRASKA

CITY           SKY/WX    TMP DP  RH WIND       PRES   REMARKS
GRAND ISLAND   PTSUNNY   84  68  58 NE8       29.88S
6HR MIN TEMP:  76; 6HR MAX TEMP:  86;

AURORA         MOSUNNY   84  67  56 N6        29.88R
HASTINGS       SUNNY     85  69  58 NE7       29.88S
6HR MIN TEMP:  81; 6HR MAX TEMP:  86;

HEBRON         SUNNY     86  67  53 E7        29.84S
HOLDREGE       SUNNY     85  63  47 NE7       29.90S
KEARNEY *      SUNNY     84  66  54 E7        29.89S
YORK           MOSUNNY   84  68  58 NE5       29.87R
$$

NEZ011>018-030>034-042>045-020100-
NORTHEAST NEBRASKA

CITY           SKY/WX    TMP DP  RH WIND       PRES   REMARKS
NORFOLK        MOSUNNY   79  67  66 E10       29.89R
6HR MIN TEMP:  79; 6HR MAX TEMP:  82;

ALBION         MOSUNNY   81  67  63 E7        29.89R
BLAIR          PTSUNNY   77  66  67 NE9       29.88R
COLUMBUS *     SUNNY    N/A N/A N/A MISG        N/A
FREMONT        CLOUDY    81  64  57 NE9       29.89R
TEKAMAH        CLOUDY    79  68  69 NE12      29.88R
6HR MIN TEMP:  79; 6HR MAX TEMP:  84;

WAYNE          MOSUNNY   75  68  78 E8        29.91R
$$

NEZ050>053-065>068-078-088>093-020100-
SOUTHEAST NEBRASKA

CITY           SKY/WX    TMP DP  RH WIND       PRES   REMARKS
LINCOLN        PTSUNNY   83  71  67 NE15      29.85R
6HR MIN TEMP:  81; 6HR MAX TEMP:  88;

OMAHA EPPLEY   MOSUNNY   80  68  66 NE12      29.87R
6HR MIN TEMP:  80; 6HR MAX TEMP:  84;

BEATRICE       SUNNY     84  70  63 NE7       29.83F
FALLS CITY     SUNNY     83  72  69 E7        29.82S
6HR MIN TEMP:  79; 6HR MAX TEMP:  86;

NEBRASKA CITY  PTSUNNY   81  67  62 E10       29.84S
PLATTSMOUTH    PTSUNNY   79  67  66 E9        29.86R
$$

NEZ044-045-051>053-067-020100-
OMAHA AREA

CITY           SKY/WX    TMP DP  RH WIND       PRES   REMARKS
OMAHA EPPLEY   MOSUNNY   80  68  66 NE12      29.87R
6HR MIN TEMP:  80; 6HR MAX TEMP:  84;

BLAIR          PTSUNNY   77  66  67 NE9       29.88R
FREMONT        CLOUDY    81  64  57 NE9       29.89R
MILLARD        CLOUDY    82  69  65 E8        29.86R
OFFUTT AFB     MOSUNNY   80  69  68 E8        29.85F
PLATTSMOUTH    PTSUNNY   79  67  66 E9        29.86R
WAHOO          CLOUDY    81  68  64 NE12      29.87R
$$


USA.gov is the U.S. government's official web portal to all federal, state and local government web resources and services.